Weather History for Rionegro, Colombia

Change the Weather History Date:

Monday, May 27, 2013

  Actual Average Record
Temperature  
Mean Temperature 63 °F -  
Max Temperature 71 °F 69 °F 84 °F (2000)
Min Temperature 55 °F 53 °F 50 °F (2008)
Degree Days  
Heating Degree Days 2    
Growing Degree Days 13 (Base 50)    
Moisture  
Dew Point 57 °F    
Average Humidity 83    
Maximum Humidity 100    
Minimum Humidity 47    
Precipitation  
Precipitation 0.00 in - - ()
Sea Level Pressure  
Sea Level Pressure 30.27 in    
Wind  
Wind Speed 2 mph ()    
Max Wind Speed 12 mph    
Max Gust Speed -    
Visibility 5.7 miles    
Events Fog , Rain , Thunderstorm    
Averages and records for this station are not official NWS values.
T = Trace of Precipitation, MM = Missing Value Source: Averaged Metar Reports

Daily Weather History Graph

Daily Weather History Graph

Search for Another Location

Airport:

Trip Planner

Search our weather history database for the weather conditions in past years. The results will help you decide how hot, cold, wet, or windy it might be!

Date:

Astronomy

May. 27, 2013 Rise Set
Actual Time 5:45 AM COT 6:12 PM COT
Civil Twilight 5:23 AM COT 6:34 PM COT
Nautical Twilight 4:56 AM COT 7:00 PM COT
Astronomical Twilight 4:30 AM COT 7:27 PM COT
Moon 9:01 PM COT 8:13 AM COT
Length of Visible Light 13h 11m
Length of Day
12h 26m
Waning Gibbous, 91% of the Moon is Illuminated
May 27
Waning Gibbous
May 31
Last Quarter
Jun 8
New
Jun 16
First Quarter
Jun 23
Full

Hourly Weather History & Observations

Time (COT) Temp. Dew Point Humidity Pressure Visibility Wind Dir Wind Speed Gust Speed Precip Events Conditions
12:00 AM 57.2 °F 57.2 °F 100% 30.34 in 4.3 mi Calm Calm - N/A Fog Fog
1:00 AM 58 °F 56 °F 92%  in 4 mi Calm Calm - - Fog Light Fog
1:00 AM 57.2 °F 57.2 °F 100% 30.32 in 4.3 mi Calm Calm - N/A Fog Fog
2:00 AM 57.2 °F 57.2 °F 100% 30.30 in 0.2 mi Calm Calm - N/A Fog Fog
3:00 AM 59.0 °F 57.2 °F 94% 30.27 in 5.0 mi Calm Calm - N/A   Mostly Cloudy
4:00 AM 57 °F 57 °F 98%  in 1 mi Calm Calm - - Fog Partial Fog
4:00 AM 57.2 °F 57.2 °F 100% 30.28 in 0.6 mi Calm Calm - N/A Fog Fog
5:00 AM 57.2 °F 55.4 °F 94% 30.26 in 5.0 mi North 4.6 mph - N/A   Overcast
5:30 AM 55.4 °F 55.4 °F 100% 30.30 in 1.2 mi Calm Calm - N/A Fog Patches of Fog
6:00 AM 57.2 °F 55.4 °F 94% 30.24 in 6.2 mi Calm Calm - N/A Fog Light Drizzle
7:00 AM 57.2 °F 55.4 °F 94% 30.29 in 2.5 mi Calm Calm - N/A Fog Patches of Fog
8:00 AM 59.0 °F 57.2 °F 94% 30.33 in 6.2 mi Calm Calm - N/A   Haze
9:00 AM 60.8 °F 57.2 °F 88% 30.34 in 6.2 mi Variable 2.3 mph - N/A   Haze
10:00 AM 62 °F 57 °F 77%  in 9 mi East 4.5 mph - -   Haze
10:00 AM 64.4 °F 55.4 °F 73% 30.32 in 6.2 mi Variable 2.3 mph - N/A   Mostly Cloudy
11:00 AM 68.0 °F 55.4 °F 64% 30.31 in 6.2 mi East 11.5 mph - N/A   Scattered Clouds
12:00 PM 68.0 °F 55.4 °F 64% 30.24 in 6.2 mi ESE 5.8 mph - N/A   Light Drizzle
1:00 PM 68 °F 55 °F 54%  in 12 mi East 6.7 mph - -   Haze
1:00 PM 66.2 °F 57.2 °F 73% 30.26 in 6.2 mi North 6.9 mph - N/A   Scattered Clouds
2:00 PM 64.4 °F 59.0 °F 83% 30.20 in 6.2 mi South 6.9 mph - N/A Rain , Thunderstorm Light Thunderstorms and Rain
3:00 PM 66.2 °F 59.0 °F 78% 30.21 in 6.2 mi WSW 6.9 mph - N/A   Scattered Clouds
4:00 PM 70 °F 54 °F 47%  in 12 mi NE 11.2 mph - -   Haze
4:00 PM 69.8 °F 53.6 °F 56% 30.22 in 6.2 mi NE 10.4 mph - N/A   Scattered Clouds
5:00 PM 69.8 °F 53.6 °F 56% 30.21 in 6.2 mi NE 8.1 mph - N/A   Scattered Clouds
6:00 PM 68.0 °F 57.2 °F 68% 30.21 in 6.2 mi ENE 5.8 mph - N/A   Mostly Cloudy
7:00 PM 65 °F 59 °F 75%  in 9 mi NE 6.7 mph - -   Haze
7:00 PM 64.4 °F 59.0 °F 83% 30.24 in 6.2 mi NE 6.9 mph - N/A   Mostly Cloudy
8:00 PM 62.6 °F 59.0 °F 88% 30.27 in 6.2 mi NNE 6.9 mph - N/A   Mostly Cloudy
9:00 PM 62.6 °F 59.0 °F 88% 30.29 in 6.2 mi Calm Calm - N/A   Mostly Cloudy
10:00 PM 62 °F 59 °F 86%  in 6 mi Calm Calm - -   Haze
10:00 PM 60.8 °F 59.0 °F 94% 30.29 in 6.2 mi Calm Calm - N/A   Scattered Clouds
11:00 PM 59.0 °F 57.2 °F 94% 30.30 in 6.2 mi Calm Calm - N/A   Scattered Clouds